Find Starlink 4384

NORAD ID: 53218 Int'l Des: 2022-084 Owner: SPXS Country: US Constellation: starlink operational
LEOCIRCULARRETROGRADESSO

Live Position

Loading 3D Globe...

About Starlink 4384

Description loading...

Upcoming Passes

Passes for default location (London). Set your location on the main map for personalized predictions.

Altitude History

Loading altitude history...

Two-Line Element Set

1 53218U 22084AF 26110.47315427 -.00003669 00000-0 -25018-3 0 9993
2 53218 97.5969 172.4710 0001461 129.6197 230.5159 15.05657095206191
Epoch: Apr 20, 2026 • Age: 5 hours

Current Status

Altitude 573.1 km
Velocity 7.57 km/s
Sub-Earth Point -58.31°S, 98.13°E
Launch Date Jul 22, 2022
Age 3.7 years
Type internet

Technical Details

Classification Payload
Mass 297.00 kg
Dry Mass 275.00 kg
Total Mass 297.00 kg
Length 0.20 m
Diameter 2.80 m
Span 9.00 m
Shape Box + pan
Manufacturer SPXS
Bus Type Starlink
Phase Status In Orbit
Owner/State SPXS/US

Most Searched